Time,TemperatureF,DewpointF,PressureIn,WindDirection,WindDirectionDegrees,WindSpeedMPH,WindSpeedGustMPH,Humidity,HourlyPrecipIn,Conditions,Clouds,dailyrainin,SolarRadiationWatts/m^2,SoftwareType,DateUTC
2013-11-06 00:02:00,25.0,23.0,-100.00,West,260,2.0,8.0,93,0.00,,,0.02,0.000000,,2013-11-06 07:02:00,
2013-11-06 00:12:00,25.0,23.0,-100.00,West,260,2.0,8.0,93,0.00,,,0.02,0.000000,,2013-11-06 07:12:00,
2013-11-06 00:42:00,26.0,24.0,-100.00,WSW,244,2.0,5.0,92,0.00,,,0.02,0.000000,,2013-11-06 07:42:00,
2013-11-06 00:52:00,26.0,24.0,-100.00,WSW,244,2.0,5.0,92,0.00,,,0.02,0.000000,,2013-11-06 07:52:00,
2013-11-06 01:02:00,26.0,24.0,-100.00,WSW,244,2.0,5.0,92,0.00,,,0.02,0.000000,,2013-11-06 08:02:00,
2013-11-06 01:12:00,26.0,24.0,-100.00,WSW,244,2.0,5.0,92,0.00,,,0.02,0.000000,,2013-11-06 08:12:00,
2013-11-06 01:42:00,26.0,25.0,-100.00,WSW,244,3.0,7.0,94,0.00,,,0.02,0.000000,,2013-11-06 08:42:00,
2013-11-06 01:52:00,26.0,25.0,-100.00,WSW,244,3.0,7.0,94,0.00,,,0.02,0.000000,,2013-11-06 08:52:00,
2013-11-06 02:02:00,26.0,25.0,-100.00,WSW,244,3.0,7.0,94,0.00,,,0.02,0.000000,,2013-11-06 09:02:00,
2013-11-06 02:11:00,26.0,25.0,-100.00,WSW,244,3.0,7.0,94,0.00,,,0.02,0.000000,,2013-11-06 09:11:00,
2013-11-06 02:43:00,26.0,23.0,-100.00,WSW,253,3.0,6.0,90,0.00,,,0.02,0.000000,,2013-11-06 09:43:00,
2013-11-06 02:53:00,26.0,23.0,-100.00,WSW,253,3.0,6.0,90,0.00,,,0.02,0.000000,,2013-11-06 09:53:00,
2013-11-06 03:03:00,26.0,23.0,-100.00,WSW,253,3.0,6.0,90,0.00,,,0.02,0.000000,,2013-11-06 10:03:00,
2013-11-06 03:12:00,26.0,23.0,-100.00,WSW,253,3.0,6.0,90,0.00,,,0.02,0.000000,,2013-11-06 10:12:00,
2013-11-06 03:42:00,26.0,23.0,-100.00,WSW,257,3.0,5.0,88,0.00,,,0.02,0.000000,,2013-11-06 10:42:00,
2013-11-06 03:53:00,26.0,23.0,-100.00,WSW,257,3.0,5.0,88,0.00,,,0.02,0.000000,,2013-11-06 10:53:00,
2013-11-06 04:02:00,26.0,23.0,-100.00,WSW,257,3.0,5.0,88,0.00,,,0.02,0.000000,,2013-11-06 11:02:00,
2013-11-06 04:12:00,26.0,23.0,-100.00,WSW,257,3.0,5.0,88,0.00,,,0.02,0.000000,,2013-11-06 11:12:00,
2013-11-06 04:42:00,26.0,23.0,-100.00,WSW,253,3.0,7.0,87,0.00,,,0.02,0.000000,,2013-11-06 11:42:00,
2013-11-06 04:52:00,26.0,23.0,-100.00,WSW,253,3.0,7.0,87,0.00,,,0.02,0.000000,,2013-11-06 11:52:00,
2013-11-06 05:02:00,26.0,23.0,-100.00,WSW,253,3.0,7.0,87,0.00,,,0.02,0.000000,,2013-11-06 12:02:00,
2013-11-06 05:12:00,26.0,23.0,-100.00,WSW,253,3.0,7.0,87,0.00,,,0.02,0.000000,,2013-11-06 12:12:00,
2013-11-06 05:42:00,26.0,21.0,-100.00,WSW,249,3.0,6.0,81,0.00,,,0.02,0.000000,,2013-11-06 12:42:00,
2013-11-06 05:52:00,26.0,21.0,-100.00,WSW,249,3.0,6.0,81,0.00,,,0.02,0.000000,,2013-11-06 12:52:00,
2013-11-06 06:01:00,26.0,21.0,-100.00,WSW,249,3.0,6.0,81,0.00,,,0.02,0.000000,,2013-11-06 13:01:00,
2013-11-06 06:12:00,26.0,21.0,-100.00,WSW,249,3.0,6.0,81,0.00,,,0.02,0.000000,,2013-11-06 13:12:00,
2013-11-06 06:42:00,26.0,22.0,-100.00,WSW,249,3.0,5.0,84,0.00,,,0.02,0.000000,,2013-11-06 13:42:00,
2013-11-06 06:52:00,26.0,22.0,-100.00,WSW,249,3.0,5.0,84,0.00,,,0.02,0.000000,,2013-11-06 13:52:00,
2013-11-06 07:02:00,26.0,22.0,-100.00,WSW,249,3.0,5.0,84,0.00,,,0.02,0.000000,,2013-11-06 14:02:00,
2013-11-06 07:11:00,26.0,22.0,-100.00,WSW,249,3.0,5.0,84,0.00,,,0.02,0.000000,,2013-11-06 14:11:00,
2013-11-06 07:42:00,24.0,22.0,-100.00,WSW,249,2.0,4.0,93,0.00,,,0.02,0.000000,,2013-11-06 14:42:00,
2013-11-06 07:52:00,24.0,22.0,-100.00,WSW,249,2.0,4.0,93,0.00,,,0.02,0.000000,,2013-11-06 14:52:00,
2013-11-06 08:01:00,24.0,22.0,-100.00,WSW,249,2.0,4.0,93,0.00,,,0.02,0.000000,,2013-11-06 15:01:00,
2013-11-06 08:11:00,24.0,22.0,-100.00,WSW,249,2.0,4.0,93,0.00,,,0.02,0.000000,,2013-11-06 15:11:00,
2013-11-06 08:43:00,24.0,22.0,-100.00,SW,233,3.0,6.0,91,0.00,,,0.02,0.000000,,2013-11-06 15:43:00,
2013-11-06 08:53:00,24.0,22.0,-100.00,SW,233,3.0,6.0,91,0.00,,,0.02,0.000000,,2013-11-06 15:53:00,
2013-11-06 09:03:00,24.0,22.0,-100.00,SW,233,3.0,6.0,91,0.00,,,0.02,0.000000,,2013-11-06 16:03:00,
2013-11-06 09:12:00,24.0,22.0,-100.00,SW,233,3.0,6.0,91,0.00,,,0.02,0.000000,,2013-11-06 16:12:00,
2013-11-06 09:43:00,24.0,22.0,-100.00,WSW,241,2.0,6.0,91,0.00,,,0.02,5.000000,,2013-11-06 16:43:00,
2013-11-06 09:53:00,24.0,22.0,-100.00,WSW,241,2.0,6.0,91,0.00,,,0.02,5.000000,,2013-11-06 16:53:00,
2013-11-06 10:02:00,24.0,22.0,-100.00,WSW,241,2.0,6.0,91,0.00,,,0.02,5.000000,,2013-11-06 17:02:00,
2013-11-06 10:13:00,24.0,22.0,-100.00,WSW,241,2.0,6.0,91,0.00,,,0.02,5.000000,,2013-11-06 17:13:00,
2013-11-06 10:43:00,28.0,20.0,-100.00,West,262,3.0,5.0,73,0.00,,,0.02,32.000000,,2013-11-06 17:43:00,
2013-11-06 10:52:00,28.0,20.0,-100.00,West,262,3.0,5.0,73,0.00,,,0.02,32.000000,,2013-11-06 17:52:00,
2013-11-06 11:01:00,28.0,20.0,-100.00,West,262,3.0,5.0,73,0.00,,,0.02,32.000000,,2013-11-06 18:01:00,
2013-11-06 11:12:00,28.0,20.0,-100.00,West,262,3.0,5.0,73,0.00,,,0.02,32.000000,,2013-11-06 18:12:00,
2013-11-06 11:42:00,32.0,21.0,-100.00,WSW,250,3.0,5.0,64,0.01,,,0.02,97.000000,,2013-11-06 18:42:00,
2013-11-06 11:52:00,32.0,21.0,-100.00,WSW,250,3.0,5.0,64,0.01,,,0.02,97.000000,,2013-11-06 18:52:00,
2013-11-06 12:01:00,32.0,21.0,-100.00,WSW,250,3.0,5.0,64,0.01,,,0.02,97.000000,,2013-11-06 19:01:00,
2013-11-06 12:11:00,32.0,21.0,-100.00,WSW,250,3.0,5.0,64,0.01,,,0.02,97.000000,,2013-11-06 19:11:00,
2013-11-06 12:42:00,33.0,21.0,-100.00,WSW,246,3.0,6.0,62,0.04,,,0.06,144.000000,,2013-11-06 19:42:00,
2013-11-06 12:52:00,33.0,21.0,-100.00,WSW,246,3.0,6.0,62,0.04,,,0.06,144.000000,,2013-11-06 19:52:00,
2013-11-06 13:01:00,33.0,21.0,-100.00,WSW,246,3.0,6.0,62,0.04,,,0.06,144.000000,,2013-11-06 20:01:00,
2013-11-06 13:12:00,33.0,21.0,-100.00,WSW,246,3.0,6.0,62,0.04,,,0.06,144.000000,,2013-11-06 20:12:00,
2013-11-06 13:42:00,36.0,22.0,-100.00,WSW,239,3.0,5.0,56,0.04,,,0.09,296.000000,,2013-11-06 20:42:00,
2013-11-06 13:52:00,36.0,22.0,-100.00,WSW,239,3.0,5.0,56,0.04,,,0.09,296.000000,,2013-11-06 20:52:00,
2013-11-06 14:02:00,36.0,22.0,-100.00,WSW,239,3.0,5.0,56,0.04,,,0.09,296.000000,,2013-11-06 21:02:00,
2013-11-06 14:11:00,36.0,22.0,-100.00,WSW,239,3.0,5.0,56,0.04,,,0.09,296.000000,,2013-11-06 21:11:00,
2013-11-06 14:14:00,34.0,20.0,-100.00,WSW,239,3.0,5.0,56,0.05,,,0.14,337.000000,,2013-11-06 21:14:00,
2013-11-06 14:44:00,34.0,20.0,-100.00,WSW,239,3.0,5.0,56,0.05,,,0.14,337.000000,,2013-11-06 21:44:00,
2013-11-06 14:54:00,34.0,20.0,-100.00,WSW,239,3.0,5.0,56,0.05,,,0.14,337.000000,,2013-11-06 21:54:00,
2013-11-06 15:04:00,34.0,20.0,-100.00,WSW,239,3.0,5.0,56,0.05,,,0.14,337.000000,,2013-11-06 22:04:00,
2013-11-06 15:43:00,31.0,19.0,-100.00,WSW,245,3.0,5.0,61,0.01,,,0.15,140.000000,,2013-11-06 22:43:00,
2013-11-06 15:53:00,31.0,19.0,-100.00,WSW,245,3.0,5.0,61,0.01,,,0.15,140.000000,,2013-11-06 22:53:00,
2013-11-06 16:02:00,31.0,19.0,-100.00,WSW,245,3.0,5.0,61,0.01,,,0.15,140.000000,,2013-11-06 23:02:00,
2013-11-06 16:13:00,31.0,19.0,-100.00,WSW,245,3.0,5.0,61,0.01,,,0.15,140.000000,,2013-11-06 23:13:00,
2013-11-06 16:42:00,30.0,20.0,-100.00,WSW,237,2.0,5.0,67,0.02,,,0.17,93.000000,,2013-11-06 23:42:00,
2013-11-06 16:53:00,30.0,20.0,-100.00,WSW,237,2.0,5.0,67,0.02,,,0.17,93.000000,,2013-11-06 23:53:00,
2013-11-06 17:02:00,30.0,20.0,-100.00,WSW,237,2.0,5.0,67,0.02,,,0.17,93.000000,,2013-11-07 00:02:00,
2013-11-06 17:11:00,30.0,20.0,-100.00,WSW,237,2.0,5.0,67,0.02,,,0.17,93.000000,,2013-11-07 00:11:00,
2013-11-06 17:42:00,29.0,21.0,-100.00,WSW,258,3.0,5.0,72,0.00,,,0.17,70.000000,,2013-11-07 00:42:00,
2013-11-06 17:52:00,29.0,21.0,-100.00,WSW,258,3.0,5.0,72,0.00,,,0.17,70.000000,,2013-11-07 00:52:00,
2013-11-06 18:01:00,29.0,21.0,-100.00,WSW,258,3.0,5.0,72,0.00,,,0.17,70.000000,,2013-11-07 01:01:00,
2013-11-06 18:11:00,29.0,21.0,-100.00,WSW,258,3.0,5.0,72,0.00,,,0.17,70.000000,,2013-11-07 01:11:00,
2013-11-06 18:42:00,28.0,22.0,-100.00,West,262,2.0,5.0,78,0.00,,,0.17,13.000000,,2013-11-07 01:42:00,
2013-11-06 18:52:00,28.0,22.0,-100.00,West,262,2.0,5.0,78,0.00,,,0.17,13.000000,,2013-11-07 01:52:00,
2013-11-06 19:01:00,28.0,22.0,-100.00,West,262,2.0,5.0,78,0.00,,,0.17,13.000000,,2013-11-07 02:01:00,
2013-11-06 19:11:00,28.0,22.0,-100.00,West,262,2.0,5.0,78,0.00,,,0.17,13.000000,,2013-11-07 02:11:00,
2013-11-06 19:53:00,27.0,23.0,-100.00,West,264,2.0,4.0,83,0.00,,,0.17,0.000000,,2013-11-07 02:53:00,
2013-11-06 20:02:00,27.0,23.0,-100.00,West,264,2.0,4.0,83,0.00,,,0.17,0.000000,,2013-11-07 03:02:00,
2013-11-06 20:12:00,27.0,23.0,-100.00,West,264,2.0,4.0,83,0.00,,,0.17,0.000000,,2013-11-07 03:12:00,
2013-11-06 20:44:00,26.0,24.0,-100.00,West,261,1.0,2.0,92,0.00,,,0.17,0.000000,,2013-11-07 03:44:00,
2013-11-06 20:55:00,26.0,24.0,-100.00,West,261,1.0,2.0,92,0.00,,,0.17,0.000000,,2013-11-07 03:55:00,
2013-11-06 21:04:00,26.0,24.0,-100.00,West,261,1.0,2.0,92,0.00,,,0.17,0.000000,,2013-11-07 04:04:00,
2013-11-06 21:13:00,26.0,24.0,-100.00,West,261,1.0,2.0,92,0.00,,,0.17,0.000000,,2013-11-07 04:13:00,
2013-11-06 21:43:00,26.0,25.0,-100.00,WSW,258,1.0,4.0,97,0.00,,,0.17,0.000000,,2013-11-07 04:43:00,
2013-11-06 21:53:00,26.0,25.0,-100.00,WSW,258,1.0,4.0,97,0.00,,,0.17,0.000000,,2013-11-07 04:53:00,
2013-11-06 22:03:00,26.0,25.0,-100.00,WSW,258,1.0,4.0,97,0.00,,,0.17,0.000000,,2013-11-07 05:03:00,
2013-11-06 22:13:00,26.0,25.0,-100.00,WSW,258,1.0,4.0,97,0.00,,,0.17,0.000000,,2013-11-07 05:13:00,
2013-11-06 22:44:00,27.0,26.0,-100.00,WSW,257,2.0,4.0,95,0.00,,,0.17,0.000000,,2013-11-07 05:44:00,
2013-11-06 22:54:00,27.0,26.0,-100.00,WSW,257,2.0,4.0,95,0.00,,,0.17,0.000000,,2013-11-07 05:54:00,
2013-11-06 23:03:00,27.0,26.0,-100.00,WSW,257,2.0,4.0,95,0.00,,,0.17,0.000000,,2013-11-07 06:03:00,
2013-11-06 23:13:00,27.0,26.0,-100.00,WSW,257,2.0,4.0,95,0.00,,,0.17,0.000000,,2013-11-07 06:13:00,
2013-11-06 23:42:00,27.0,26.0,-100.00,WNW,303,2.0,3.0,95,0.00,,,0.17,0.000000,,2013-11-07 06:42:00,
2013-11-06 23:52:00,27.0,26.0,-100.00,WNW,303,2.0,3.0,95,0.00,,,0.17,0.000000,,2013-11-07 06:52:00,